This demonstration page uses our WeatherBlox Daily Observations layout. Learn more.

Left ArrowRight Arrow

Hourly Observations for March 27, 2017

Temp ( °F °C ) Dew Point ( °F °C ) Humidity (%) Winds ( mph kmh ) Pressure ( in mb ) Visibility ( mi km ) Precip ( " mm )
12:53 am 00:53 Clear with Mist and Fog 51 10.6 51 10.6 100 100 N N/A 29.97 1015 6 10 N/A
1:12 am 01:12 Clear with Mist and Fog 49 9.4 49 9.4 100 100 N N/A 30.00 1016 1 2 N/A
1:19 am 01:19 Mostly Cloudy with Fog 47 8.3 47 8.3 100 100 N N/A 30.00 1016 0 0 N/A
1:48 am 01:48 Clear with Fog 46 8 46 8 100 100 N N/A 30.00 1016 1 1 N/A
1:53 am 01:53 Clear with Fog 47 8.3 47 8.3 100 100 N N/A 29.96 1015 0 0 N/A
2:04 am 02:04 Mostly Cloudy with Fog 46 7.8 46 7.8 100 100 N N/A 30.00 1016 0 0 N/A
2:53 am 02:53 Mostly Cloudy with Fog 46 7.8 46 7.8 100 100 N N/A 29.96 1015 1 1 N/A
3:35 am 03:35 Clear with Mist and Fog 44 6.7 44 6.7 100 100 N N/A 30.00 1016 2 3 N/A
3:44 am 03:44 Clear with Mist and Fog 43 6.1 43 6.1 100 100 N N/A 30.00 1016 1 1 N/A
3:53 am 03:53 Mostly Cloudy with Fog 43 6.1 43 6.1 100 100 N N/A 29.96 1015 0 0 N/A
4:53 am 04:53 Mostly Cloudy with Fog 42 5.6 42 5.6 100 100 N N/A 29.97 1015 0 0 N/A
5:53 am 05:53 Mostly Cloudy with Fog 42 5.6 42 5.6 100 100 N N/A 29.99 1016 0 0 N/A
6:53 am 06:53 Mostly Cloudy with Fog 43 6.1 43 6.1 100 100 N N/A 29.98 1015 0 0 N/A
7:53 am 07:53 Mostly Cloudy with Fog 42 5.6 42 5.6 100 100 N N/A 30.01 1016 5 8 N/A
8:42 am 08:42 Sunny with Fog 48 8.9 48 8.9 100 100 N N/A 30.03 1017 1 1 N/A
8:47 am 08:47 Sunny with Mist and Fog 48 9 48 9 100 100 N N/A 30.03 1017 2 3 N/A
8:53 am 08:53 Sunny with Mist and Fog 50 10 50 10 100 100 N N/A 30.01 1016 3 5 N/A
9:53 am 09:53 Sunny 55 12.8 53 11.7 93 93 N N/A 30.01 1016 9 14 N/A
10:53 am 10:53 Sunny 61 16.1 52 11.1 72 72 N N/A 30.01 1016 10 16 N/A
11:53 am 11:53 Sunny 63 17.2 52 11.1 68 68 N N/A 30.00 1016 10 16 N/A
12:53 pm 12:53 Mostly Sunny 64 17.8 50 10 60 60 S 6 9 29.99 1016 10 16 N/A
1:53 pm 13:53 Partly Cloudy 64 17.8 50 10 60 60 S 8 13 29.97 1015 10 16 N/A
2:53 pm 14:53 Mostly Sunny 64 17.8 51 10.6 63 63 ESE 5 7 29.91 1013 10 16 N/A
3:53 pm 15:53 Cloudy 67 19.4 53 11.7 61 61 VRB 3 6 29.90 1012 10 16 N/A
4:53 pm 16:53 Partly Cloudy 67 19.4 53 11.7 61 61 SE 3 6 29.88 1012 10 16 N/A
5:53 pm 17:53 Sunny 68 20 55 12.8 63 63 E 3 6 29.86 1011 10 16 N/A
6:53 pm 18:53 Sunny 66 18.9 56 13.3 70 70 E 6 9 29.84 1011 10 16 N/A
7:53 pm 19:53 Cloudy with Heavy Rain 62 16.7 59 15 90 90 N N/A 29.85 1011 4 6 0.04 1.02
8:16 pm 20:16 Cloudy with Nearby Thunderstorms 62 16.7 59 15 90 90 N 6 9 29.83 1010 6 10 0.04 1.02
8:25 pm 20:25 Cloudy with Thunderstorms 60 15.6 60 15.6 100 100 S 5 7 29.85 1011 4 6 0.07 1.78
8:27 pm 20:27 Cloudy with Strong Thunderstorms 60 15.6 59 15 96 96 VRB 5 7 29.85 1011 2 3 0.16 4.06
8:34 pm 20:34 Cloudy with Strong Thunderstorms 61 16.1 58 14.4 90 90 NE 8 13 29.85 1011 1 2 0.33 8.38
8:45 pm 20:45 Cloudy with Strong Thunderstorms 60 15.6 59 15 96 96 VRB 5 7 29.88 1012 2 3 0.48 12.19
8:50 pm 20:50 Cloudy with Strong Thunderstorms 59 15 59 15 100 100 SSE 5 7 29.88 1012 1 1 0.63 16.00
8:53 pm 20:53 Cloudy with Strong Thunderstorms 59 15 59 15 100 100 ESE 7 11 29.87 1012 1 1 0.69 17.53
8:58 pm 20:58 Cloudy with Nearby Thunderstorms 58 14.4 58 14.4 100 100 SSE 6 9 29.88 1012 1 2 0.04 1.02
9:02 pm 21:02 Cloudy with Nearby Thunderstorms 58 14.4 58 14.4 100 100 E 7 11 29.85 1011 2 3 0.06 1.52
9:11 pm 21:11 Cloudy with Nearby Thunderstorms 58 14.4 58 14.4 100 100 E 5 7 29.85 1011 4 6 0.09 2.29
9:22 pm 21:22 Cloudy with Rain 58 14.4 58 14.4 100 100 E 5 7 29.85 1011 4 6 0.14 3.56
9:53 pm 21:53 Cloudy with Light Rain 58 14.4 58 14.4 100 100 N N/A 29.86 1011 6 10 0.16 4.06
10:53 pm 22:53 Cloudy with Light Rain 59 15 58 14.4 96 96 N N/A 29.85 1011 7 11 0.02 0.51
11:53 pm 23:53 Cloudy 59 15 58 14.4 96 96 N N/A 29.85 1011 9 14 0.02 0.51

Powered by AerisWeather